SKW5775 KDEN-KASE

Flight info

Callsign SKW5775
Flight time 0h 41m
Altitude 24000
Route CONNR8 CONNR MMARY MMARY1
Aircraft E75L/M-SDE3GILORVW/S

Departure

Time 2026-04-22 00:35
Airport Denver International Airport (KDEN)

Arrival

Time 2026-04-22 01:17
Airport Aspen-Pitkin County Airport (Sardy Field) (KASE)
Time Latitude Longitude Altitude Speed Heading
2026-04-22 00:17 39.85946 -104.66610 5378 ft 0 kts 180°
2026-04-22 00:24 39.85947 -104.66610 5378 ft 1 kts 180°
2026-04-22 00:24 39.85972 -104.66610 5376 ft 3 kts 178°
2026-04-22 00:25 39.85997 -104.66617 5374 ft 4 kts 145°
2026-04-22 00:25 39.86006 -104.66639 5378 ft 0 kts 90°
2026-04-22 00:27 39.86008 -104.66630 5375 ft 2 kts 68°
2026-04-22 00:28 39.86038 -104.66608 5377 ft 8 kts 23°
2026-04-22 00:28 39.86088 -104.66575 5375 ft 8 kts 43°
2026-04-22 00:28 39.86106 -104.66501 5375 ft 9 kts 88°
2026-04-22 00:28 39.86106 -104.66424 5377 ft 8 kts 91°
2026-04-22 00:29 39.86106 -104.66353 5378 ft 8 kts 90°
2026-04-22 00:29 39.86106 -104.66290 5381 ft 7 kts 86°
2026-04-22 00:29 39.86135 -104.66235 5380 ft 11 kts 22°
2026-04-22 00:29 39.86220 -104.66228 5379 ft 13 kts
2026-04-22 00:30 39.86316 -104.66227 5377 ft 15 kts 360°
2026-04-22 00:30 39.86422 -104.66226 5377 ft 13 kts
2026-04-22 00:30 39.86491 -104.66197 5377 ft 10 kts 55°
2026-04-22 00:30 39.86499 -104.66108 5377 ft 11 kts 90°
2026-04-22 00:31 39.86498 -104.65992 5377 ft 15 kts 90°
2026-04-22 00:31 39.86497 -104.65845 5373 ft 18 kts 90°
2026-04-22 00:31 39.86496 -104.65671 5370 ft 21 kts 90°
2026-04-22 00:31 39.86494 -104.65468 5366 ft 24 kts 90°
2026-04-22 00:32 39.86493 -104.65241 5361 ft 26 kts 92°
2026-04-22 00:32 39.86491 -104.65057 5357 ft 18 kts 90°
2026-04-22 00:32 39.86490 -104.64900 5354 ft 18 kts 91°
2026-04-22 00:32 39.86489 -104.64733 5349 ft 19 kts 90°
2026-04-22 00:33 39.86488 -104.64573 5347 ft 18 kts 90°
2026-04-22 00:33 39.86487 -104.64419 5344 ft 17 kts 90°
2026-04-22 00:33 39.86486 -104.64310 5343 ft 9 kts 90°
2026-04-22 00:33 39.86486 -104.64275 5342 ft 0 kts 90°
2026-04-22 00:34 39.86486 -104.64251 5342 ft 8 kts 90°
2026-04-22 00:34 39.86481 -104.64168 5342 ft 9 kts 112°
2026-04-22 00:34 39.86430 -104.64132 5347 ft 9 kts 180°
2026-04-22 00:35 39.86225 -104.64134 5345 ft 66 kts 180°
2026-04-22 00:35 39.85509 -104.64141 5353 ft 138 kts 180°
2026-04-22 00:35 39.84377 -104.64156 5695 ft 177 kts 178°
2026-04-22 00:35 39.83127 -104.64203 6710 ft 177 kts 178°
2026-04-22 00:36 39.81915 -104.64649 7580 ft 196 kts 213°
2026-04-22 00:36 39.80928 -104.65942 8422 ft 207 kts 227°
2026-04-22 00:36 39.80179 -104.67590 9210 ft 218 kts 246°
2026-04-22 00:36 39.79864 -104.69552 9918 ft 231 kts 265°
2026-04-22 00:37 39.80061 -104.71696 10118 ft 248 kts 283°
2026-04-22 00:37 39.80586 -104.73840 10601 ft 252 kts 285°
2026-04-22 00:37 39.81061 -104.76072 11499 ft 259 kts 284°
2026-04-22 00:37 39.81544 -104.78340 12386 ft 261 kts 283°
2026-04-22 00:38 39.82042 -104.80634 13267 ft 265 kts 284°
2026-04-22 00:38 39.82543 -104.82923 14103 ft 268 kts 285°
2026-04-22 00:38 39.83101 -104.85296 14961 ft 284 kts 286°
2026-04-22 00:38 39.83728 -104.87814 15753 ft 299 kts 287°
2026-04-22 00:39 39.84193 -104.90508 16441 ft 316 kts 273°
2026-04-22 00:39 39.83870 -104.93344 17312 ft 320 kts 255°
2026-04-22 00:39 39.83296 -104.96164 18370 ft 317 kts 255°
2026-04-22 00:39 39.82733 -104.98956 19248 ft 325 kts 254°
2026-04-22 00:40 39.82122 -105.01827 19950 ft 337 kts 254°
2026-04-22 00:40 39.81523 -105.04812 20666 ft 347 kts 255°
2026-04-22 00:40 39.80904 -105.07880 21463 ft 351 kts 255°
2026-04-22 00:40 39.80279 -105.10987 22140 ft 359 kts 255°
2026-04-22 00:41 39.79645 -105.14121 22806 ft 366 kts 255°
2026-04-22 00:41 39.78996 -105.17334 23504 ft 370 kts 255°
2026-04-22 00:41 39.78336 -105.20595 24024 ft 378 kts 255°
2026-04-22 00:41 39.77650 -105.23982 23988 ft 392 kts 255°
2026-04-22 00:42 39.76949 -105.27438 24084 ft 397 kts 255°
2026-04-22 00:42 39.76253 -105.30849 24111 ft 380 kts 255°
2026-04-22 00:42 39.75588 -105.34109 24160 ft 367 kts 255°
2026-04-22 00:42 39.74937 -105.37290 24175 ft 360 kts 255°
2026-04-22 00:43 39.74296 -105.40418 24205 ft 354 kts 255°
2026-04-22 00:43 39.73664 -105.43501 24252 ft 351 kts 255°
2026-04-22 00:43 39.73019 -105.46636 24247 ft 366 kts 255°
2026-04-22 00:43 39.72362 -105.49852 24292 ft 372 kts 255°
2026-04-22 00:44 39.71687 -105.53120 24323 ft 376 kts 255°
2026-04-22 00:44 39.71008 -105.56408 24380 ft 377 kts 255°
2026-04-22 00:44 39.70330 -105.59721 24376 ft 380 kts 255°
2026-04-22 00:44 39.69651 -105.63046 24384 ft 382 kts 255°
2026-04-22 00:45 39.68966 -105.66390 24407 ft 383 kts 255°
2026-04-22 00:45 39.68312 -105.69754 24431 ft 394 kts 256°
2026-04-22 00:45 39.67671 -105.73236 24446 ft 399 kts 255°
2026-04-22 00:45 39.67011 -105.76763 24440 ft 405 kts 256°
2026-04-22 00:46 39.66308 -105.80304 24420 ft 408 kts 252°
2026-04-22 00:46 39.65089 -105.83608 24410 ft 408 kts 237°
2026-04-22 00:46 39.63502 -105.86604 24376 ft 395 kts 235°
2026-04-22 00:46 39.62482 -105.88539 24270 ft 391 kts 236°
2026-04-22 00:47 39.60941 -105.91393 23331 ft 382 kts 234°
2026-04-22 00:47 39.59443 -105.94191 22296 ft 374 kts 236°
2026-04-22 00:47 39.57989 -105.96936 21751 ft 364 kts 235°
2026-04-22 00:47 39.56554 -105.99657 21246 ft 365 kts 235°
2026-04-22 00:48 39.55131 -106.02366 20739 ft 362 kts 235°
2026-04-22 00:48 39.53764 -106.05039 20354 ft 347 kts 240°
2026-04-22 00:48 39.53004 -106.07960 20013 ft 343 kts 263°
2026-04-22 00:48 39.53049 -106.11026 19787 ft 340 kts 272°
2026-04-22 00:49 39.53181 -106.14071 19577 ft 337 kts 271°
2026-04-22 00:49 39.53297 -106.17105 19281 ft 335 kts 271°
2026-04-22 00:49 39.53410 -106.20100 19090 ft 332 kts 270°
2026-04-22 00:49 39.53524 -106.23094 18829 ft 331 kts 271°
2026-04-22 00:50 39.53639 -106.26077 18617 ft 330 kts 270°
2026-04-22 00:50 39.53753 -106.29041 18377 ft 329 kts 271°
2026-04-22 00:50 39.53860 -106.31961 18153 ft 328 kts 270°
2026-04-22 00:50 39.53967 -106.34908 17918 ft 327 kts 271°
2026-04-22 00:51 39.54077 -106.37850 17683 ft 329 kts 270°
2026-04-22 00:51 39.54179 -106.40833 17456 ft 332 kts 270°
2026-04-22 00:51 39.54250 -106.43822 17194 ft 329 kts 270°
2026-04-22 00:51 39.54331 -106.46750 17158 ft 324 kts 270°
2026-04-22 00:52 39.54409 -106.49662 17185 ft 323 kts 270°
2026-04-22 00:52 39.54484 -106.52576 17181 ft 323 kts 270°
2026-04-22 00:52 39.54558 -106.55508 16950 ft 326 kts 270°
2026-04-22 00:52 39.54632 -106.58381 16538 ft 321 kts 270°
2026-04-22 00:53 39.54703 -106.61266 16145 ft 320 kts 270°
2026-04-22 00:53 39.54770 -106.64120 16197 ft 321 kts 270°
2026-04-22 00:53 39.54836 -106.67016 16178 ft 320 kts 268°
2026-04-22 00:53 39.54472 -106.69824 16157 ft 316 kts 245°
2026-04-22 00:54 39.53235 -106.72133 16200 ft 313 kts 222°
2026-04-22 00:54 39.51599 -106.73982 16189 ft 313 kts 228°
2026-04-22 00:54 39.50394 -106.76321 16169 ft 310 kts 238°
2026-04-22 00:54 39.49267 -106.78684 15774 ft 305 kts 236°
2026-04-22 00:55 39.48139 -106.80980 15383 ft 300 kts 236°
2026-04-22 00:55 39.47058 -106.83188 14970 ft 281 kts 236°
2026-04-22 00:55 39.45135 -106.87101 14398 ft 236 kts 236°
2026-04-22 00:56 39.44301 -106.88808 14211 ft 214 kts 236°
2026-04-22 00:56 39.43596 -106.90386 14001 ft 196 kts 244°
2026-04-22 00:56 39.43014 -106.91951 13629 ft 189 kts 241°
2026-04-22 00:56 39.42275 -106.93276 13357 ft 172 kts 223°
2026-04-22 00:57 39.41367 -106.94131 13233 ft 153 kts 205°
2026-04-22 00:57 39.40378 -106.94471 13211 ft 147 kts 184°
2026-04-22 00:57 39.39354 -106.94565 13209 ft 148 kts 187°
2026-04-22 00:57 39.38313 -106.94591 13079 ft 152 kts 166°
2026-04-22 00:58 39.37352 -106.94080 13091 ft 147 kts 157°
2026-04-22 00:58 39.36378 -106.93618 13082 ft 149 kts 162°
2026-04-22 00:58 39.35381 -106.93175 12970 ft 158 kts 160°
2026-04-22 00:58 39.34352 -106.92664 12654 ft 158 kts 160°
2026-04-22 00:59 39.33347 -106.92183 12347 ft 155 kts 160°
2026-04-22 00:59 39.32329 -106.91695 11942 ft 156 kts 160°
2026-04-22 00:59 39.31336 -106.91188 11484 ft 151 kts 154°
2026-04-22 00:59 39.30380 -106.90674 11362 ft 144 kts 158°
2026-04-22 01:00 39.29507 -106.90228 11890 ft 125 kts 165°
2026-04-22 01:00 39.28624 -106.89885 11904 ft 144 kts 149°
2026-04-22 01:00 39.27986 -106.88778 11873 ft 171 kts 106°
2026-04-22 01:00 39.27978 -106.87206 12204 ft 170 kts 80°
2026-04-22 01:01 39.28609 -106.85923 12655 ft 177 kts 34°
2026-04-22 01:01 39.29789 -106.85492 13171 ft 184 kts 354°
2026-04-22 01:01 39.30944 -106.86177 13794 ft 187 kts 311°
2026-04-22 01:01 39.31467 -106.87683 14392 ft 189 kts 270°
2026-04-22 01:02 39.31494 -106.89363 15154 ft 187 kts 269°
2026-04-22 01:02 39.31558 -106.91077 15785 ft 195 kts 270°
2026-04-22 01:02 39.31627 -106.92873 16254 ft 210 kts 269°
2026-04-22 01:02 39.31705 -106.94794 16264 ft 221 kts 274°
2026-04-22 01:03 39.32267 -106.96663 16187 ft 230 kts 303°
2026-04-22 01:03 39.33578 -106.97865 16111 ft 240 kts 344°
2026-04-22 01:03 39.35230 -106.97774 16126 ft 242 kts 22°
2026-04-22 01:03 39.36492 -106.96409 16198 ft 238 kts 62°
2026-04-22 01:04 39.36960 -106.94443 16225 ft 223 kts 81°
2026-04-22 01:04 39.37287 -106.92523 16069 ft 217 kts 80°
2026-04-22 01:04 39.37623 -106.90636 16009 ft 212 kts 79°
2026-04-22 01:04 39.37951 -106.88740 16129 ft 222 kts 80°
2026-04-22 01:05 39.38305 -106.86766 16200 ft 230 kts 79°
2026-04-22 01:05 39.38672 -106.84726 16118 ft 233 kts 79°
2026-04-22 01:05 39.39030 -106.82707 16056 ft 233 kts 80°
2026-04-22 01:05 39.39396 -106.80661 16009 ft 234 kts 79°
2026-04-22 01:06 39.39760 -106.78619 16024 ft 233 kts 79°
2026-04-22 01:06 39.40121 -106.76566 16040 ft 234 kts 79°
2026-04-22 01:06 39.40490 -106.74488 15871 ft 240 kts 79°
2026-04-22 01:06 39.40855 -106.72385 15646 ft 238 kts 79°
2026-04-22 01:07 39.41208 -106.70298 15431 ft 237 kts 79°
2026-04-22 01:07 39.41693 -106.68278 15203 ft 237 kts 63°
2026-04-22 01:07 39.42820 -106.66733 14991 ft 240 kts 31°
2026-04-22 01:07 39.44385 -106.66215 15061 ft 233 kts 357°
2026-04-22 01:08 39.45900 -106.66832 15075 ft 234 kts 324°
2026-04-22 01:08 39.46938 -106.68407 15089 ft 230 kts 291°
2026-04-22 01:08 39.47141 -106.70414 15088 ft 225 kts 257°
2026-04-22 01:08 39.46606 -106.72306 15136 ft 225 kts 246°
2026-04-22 01:09 39.46135 -106.74252 15054 ft 228 kts 255°
2026-04-22 01:09 39.45855 -106.76272 14976 ft 227 kts 258°
2026-04-22 01:09 39.45601 -106.78261 14784 ft 232 kts 258°
2026-04-22 01:09 39.45328 -106.80378 14188 ft 237 kts 258°
2026-04-22 01:10 39.45064 -106.82394 14144 ft 220 kts 258°
2026-04-22 01:10 39.44799 -106.84349 14105 ft 221 kts 258°
2026-04-22 01:10 39.44532 -106.86311 14039 ft 222 kts 257°
2026-04-22 01:10 39.44266 -106.88254 13899 ft 214 kts 258°
2026-04-22 01:11 39.43991 -106.90107 13682 ft 205 kts 252°
2026-04-22 01:11 39.43330 -106.91705 13595 ft 199 kts 239°
2026-04-22 01:11 39.42609 -106.93142 13466 ft 182 kts 225°
2026-04-22 01:11 39.41677 -106.94100 13330 ft 164 kts 209°
2026-04-22 01:12 39.40630 -106.94635 13134 ft 160 kts 192°
2026-04-22 01:12 39.39556 -106.94782 13030 ft 156 kts 179°
2026-04-22 01:12 39.38486 -106.94558 12888 ft 157 kts 165°
2026-04-22 01:12 39.37440 -106.94204 12747 ft 153 kts 166°
2026-04-22 01:13 39.36438 -106.93743 12552 ft 152 kts 159°
2026-04-22 01:13 39.35451 -106.93258 12401 ft 152 kts 160°
2026-04-22 01:13 39.34455 -106.92783 12251 ft 154 kts 160°
2026-04-22 01:13 39.33453 -106.92303 12021 ft 153 kts 161°
2026-04-22 01:14 39.32459 -106.91837 11774 ft 151 kts 160°
2026-04-22 01:14 39.31479 -106.91331 11325 ft 153 kts 158°
2026-04-22 01:14 39.30486 -106.90801 10718 ft 156 kts 146°
2026-04-22 01:14 39.29482 -106.90208 10028 ft 160 kts 148°
2026-04-22 01:15 39.28443 -106.89742 9445 ft 154 kts 150°
2026-04-22 01:15 39.27432 -106.89300 8825 ft 152 kts 149°
2026-04-22 01:15 39.26482 -106.88857 8603 ft 138 kts 159°
2026-04-22 01:15 39.25593 -106.88447 8359 ft 135 kts 163°
2026-04-22 01:16 39.24724 -106.88032 8178 ft 137 kts 160°
2026-04-22 01:16 39.23835 -106.87609 7971 ft 138 kts 159°
2026-04-22 01:16 39.22961 -106.87193 7822 ft 124 kts 154°
2026-04-22 01:16 39.22282 -106.86870 7816 ft 82 kts 159°
2026-04-22 01:17 39.21931 -106.86705 7817 ft 18 kts 160°
2026-04-22 01:17 39.21885 -106.86639 7820 ft 7 kts 116°
2026-04-22 01:17 39.21872 -106.86583 7819 ft 5 kts 88°
2026-04-22 01:17 39.21889 -106.86543 7819 ft 6 kts 38°
2026-04-22 01:18 39.21915 -106.86520 7819 ft 3 kts 38°
2026-04-22 01:18 39.21922 -106.86501 7819 ft 2 kts 72°
2026-04-22 01:18 39.21927 -106.86480 7816 ft 2 kts 73°
2026-04-22 01:18 39.21930 -106.86469 7819 ft 0 kts 73°